Notices

What's New in latest Release from April 7th, 2021:

- Updated Glossary, including Speed of Maximum Gust, and Total Hourly Precipitation

- Updated national and regional climate services offices contacts and prices information

- Addition of station inventory lists for 1981-2010, 1971-2000, and 1961-1990 Normals.

If you haven't already, please take our survey and provide feedback about our website: https://eccc.sondage-survey.ca/f/LanguageSelection.aspx?s=442ca660-fcf1-47c0-95a9-59707d6fd709

Hourly Data Report for January 13, 2021

EDMUNDSTON
NEW BRUNSWICK
Current Station Operator: ECCC - MSC

47°25'00.000" N
68°19'28.040" W
154.20 m
8101303
71590
ERM

Download Data

Hourly Data (January 2021)
Hourly Data Report for January 13, 2021
TIME
LST
Temp Definition
°C
Dew Point Definition
°C
Rel Hum Definition
%
Precip. Amount Definition
mm

Wind Dir Definition
10's deg

Wind Spd Definition
km/h
Visibility Definition
km
Stn Press Definition
kPa
Hmdx Definition


Wind Chill Definition


Weather Definition


00:00 -4.4 LegendMM LegendMM 0.0   0   99.53     LegendNANA
01:00 -4.7 LegendMM LegendMM 0.0   0   99.50     LegendNANA
02:00 -4.9 LegendMM LegendMM 0.0 0 1   99.51   -5 LegendNANA
03:00 -5.0 LegendMM LegendMM 0.0 10 3   99.50   -6 LegendNANA
04:00 -5.0 LegendMM LegendMM 0.0   0   99.48     LegendNANA
05:00 -5.0 LegendMM LegendMM 0.0   0   99.45     LegendNANA
06:00 -5.4 LegendMM LegendMM 0.0 0 1   99.44   -6 LegendNANA
07:00 -5.5 LegendMM LegendMM 0.0 9 2   99.45   -6 LegendNANA
08:00 -5.4 LegendMM LegendMM 0.0 8 2   99.44   -6 LegendNANA
09:00 -5.2 LegendMM LegendMM 0.0 35 1   99.47   -6 LegendNANA
10:00 -4.1 LegendMM LegendMM 0.0   0   99.48     LegendNANA
11:00 -2.0 LegendMM LegendMM 0.0 11 2   99.44   -3 LegendNANA
12:00 -0.4 LegendMM LegendMM 0.0 20 8   99.33   -3 LegendNANA
13:00 -0.2 LegendMM LegendMM 0.0 21 7   99.24   -3 LegendNANA
14:00 0.0 LegendMM LegendMM 0.0 21 8   99.21   -3 LegendNANA
15:00 0.1 LegendMM LegendMM 0.0 24 10   99.21     LegendNANA
16:00 -0.1 LegendMM LegendMM 0.0 23 6   99.21   -2 LegendNANA
17:00 -0.5 LegendMM LegendMM 0.0 18 3   99.21   -1 LegendNANA
18:00 -0.8 LegendMM LegendMM 0.0 17 3   99.20   -2 LegendNANA
19:00 -1.0 LegendMM LegendMM 0.0 11 1   99.20   -1 LegendNANA
20:00 -1.5 LegendMM LegendMM 0.0 12 1   99.18   -2 LegendNANA
21:00 -1.7 LegendMM LegendMM 0.0 11 3   99.17   -3 LegendNANA
22:00 -2.0 LegendMM LegendMM 0.0 12 2   99.13   -3 LegendNANA
23:00 -2.0 LegendMM LegendMM 0.0 13 5   99.13   -4 LegendNANA

Notes on Data Quality.

Legend

  • E = Estimated
  • M = Missing
  • NA = Not Available*
  • [empty] = Indicates an unobserved value
Date modified: